Simultaneous Nadir Overpasses (SNOs) Predictions

Prediction of SNOs between FY3D and METOP-C Satellite Orbit:

Table of predicted SNOs for the next 14.0 days since TLE Epoch: 9/9/2019
Index Date (FY3D) Time (FY3D) Lat,Lon (FY3D) SZA (FY3D ) Date (METOP-C) Time (METOP-C) Lat,Lon (METOP-C) SZA (METOP-C ) Distance(km) Time Diff (sec)
1 09/21/2019 16:09:56 73.62, -71.50 73.03 09/21/2019 16:11:03 73.56, -69.02 72.89 78.14 67
2 09/21/2019 17:00:38 -73.55, 95.98 107.03 09/21/2019 17:01:47 -73.50, 98.16 107.16 69.04 69
3 09/21/2019 17:51:19 73.32, -96.17 72.73 09/21/2019 17:52:30 73.29, -94.97 72.66 38.31 71
4 09/21/2019 18:42:02 -73.30, 71.19 107.28 09/21/2019 18:43:14 -73.23, 72.21 107.39 33.76 72
5 09/21/2019 19:32:43 73.06,-120.97 72.48 09/21/2019 19:33:57 73.01,-120.91 72.43 5.25 74
6 09/21/2019 20:23:26 -73.04, 46.38 107.53 09/21/2019 20:24:40 -73.00, 46.39 107.57 4.10 74
7 09/21/2019 21:14:11 73.00,-146.22 72.45 09/21/2019 21:15:19 72.99,-146.30 72.43 2.56 68
8 09/21/2019 22:04:55 -73.03, 21.03 107.51 09/21/2019 22:06:01 -73.03, 21.11 107.52 2.86 66
9 09/21/2019 22:55:40 72.99,-171.58 72.47 09/21/2019 22:56:40 73.02,-171.57 72.49 3.26 60
10 09/21/2019 23:46:24 -73.03, -4.33 107.49 09/21/2019 23:47:23 -73.01, -4.27 107.51 2.48 59
11 09/22/2019 00:37:09 72.99, 163.07 72.49 09/22/2019 00:38:02 73.00, 163.04 72.50 1.87 53
12 09/22/2019 01:27:53 -73.02, -29.69 107.47 09/22/2019 01:28:45 -72.99, -29.66 107.50 3.27 52
13 09/22/2019 02:18:38 72.98, 137.71 72.51 09/22/2019 02:19:24 72.98, 137.66 72.50 1.78 46
14 09/22/2019 03:09:21 -72.96, -54.93 107.50 09/22/2019 03:10:07 -72.97, -55.04 107.50 3.59 46
15 09/22/2019 04:00:07 72.97, 112.35 72.53 09/22/2019 04:00:46 72.96, 112.27 72.51 3.10 39
16 09/22/2019 04:50:51 -73.00, -80.40 107.43 09/22/2019 04:51:28 -73.00, -80.32 107.44 2.66 37
17 09/22/2019 05:41:36 72.96, 87.00 72.54 09/22/2019 05:42:07 72.99, 86.99 72.56 2.58 31
18 09/22/2019 06:32:20 -73.00,-105.75 107.41 09/22/2019 06:32:50 -72.98,-105.70 107.44 2.71 30
19 09/22/2019 07:23:05 72.96, 61.64 72.56 09/22/2019 07:23:29 72.97, 61.61 72.57 1.49 24
20 09/22/2019 08:13:48 -72.94,-131.00 107.44 09/22/2019 08:14:12 -72.96,-131.09 107.43 3.37 24
21 09/22/2019 09:04:34 72.95, 36.29 72.58 09/22/2019 09:04:51 72.94, 36.22 72.58 2.15 17
22 09/22/2019 09:55:18 -72.98,-156.47 107.37 09/22/2019 09:55:33 -72.99,-156.37 107.37 3.28 15
23 09/22/2019 10:46:03 72.94, 10.93 72.60 09/22/2019 10:46:12 72.97, 10.95 72.63 3.50 9
24 09/22/2019 11:36:47 -72.98, 178.18 107.35 09/22/2019 11:36:55 -72.96, 178.25 107.37 2.61 8
25 09/22/2019 12:27:32 72.94, -14.43 72.62 09/22/2019 12:27:34 72.95, -14.44 72.64 1.94 2
26 09/22/2019 13:18:16 -72.97, 152.82 107.33 09/22/2019 13:18:17 -72.94, 152.86 107.36 3.07 1
27 09/22/2019 14:09:01 72.93, -39.78 72.64 09/22/2019 14:08:56 72.93, -39.82 72.65 1.43 5
28 09/22/2019 14:59:44 -72.91, 127.57 107.37 09/22/2019 14:59:39 -72.92, 127.48 107.35 3.31 5
29 09/22/2019 15:50:30 72.92, -65.14 72.66 09/22/2019 15:50:18 72.91, -65.21 72.65 2.66 12
30 09/22/2019 16:41:14 -72.95, 102.11 107.29 09/22/2019 16:41:00 -72.95, 102.20 107.30 3.01 14
31 09/22/2019 17:31:59 72.91, -90.49 72.68 09/22/2019 17:31:39 72.94, -90.49 72.71 2.79 20
32 09/22/2019 18:22:43 -72.95, 76.75 107.27 09/22/2019 18:22:22 -72.93, 76.82 107.29 2.73 21
33 09/22/2019 19:13:28 72.91,-115.85 72.70 09/22/2019 19:13:01 72.92,-115.87 72.72 1.39 27
34 09/22/2019 20:04:11 -72.89, 51.50 107.31 09/22/2019 20:03:44 -72.91, 51.43 107.28 3.26 27
35 09/22/2019 20:54:57 72.90,-141.21 72.72 09/22/2019 20:54:23 72.90,-141.26 72.72 1.70 34
36 09/22/2019 21:45:40 -72.88, 26.15 107.29 09/22/2019 21:45:06 -72.89, 26.05 107.27 3.35 34
37 09/22/2019 22:36:26 72.89,-166.56 72.74 09/22/2019 22:35:45 72.87,-166.64 72.73 3.26 41
38 09/22/2019 23:27:10 -72.93, 0.69 107.22 09/22/2019 23:26:27 -72.92, 0.77 107.22 2.88 43
39 09/23/2019 00:17:55 72.88, 168.08 72.76 09/23/2019 00:17:06 72.90, 168.08 72.79 2.09 49
40 09/23/2019 01:08:39 -72.92, -24.67 107.20 09/23/2019 01:07:49 -72.90, -24.61 107.21 3.00 50




NCC Satellite Simultaneous Nadir Overpasses (SNOs) Prediction Service
